STARLINK-32777, 62525

Orbit data source: Space-Track

STARLINK-32777, 62525 is a payload satellite owned by SpaceX/Seattle (US) in LEO that was launched on Wed, 08 Jan 2025 UTC via an FALCON 9 launch vehicle from the Air Force Eastern Test Range (AFETR). Payload-class satellites include a variety of spacecraft equipped with specific instruments for various scientific and technological missions. These include communications satellites like Starlink; space stations such as the ISS; scientific satellites like the Hubble; Earth observation satellites from companies like Planet Labs, Umbra, and HawkEye 360; GPS; miniature CubeSats for education and research; and military/defense satellites.

Loading next visibility...
Identifier
62525, 2025-004Q
Orbit
LEO
Country
Flag of USUS
Related business
Manufacturer
SpaceX/Seattle
Mission
Operational Commercial Communications
Bus & Motor
STARLINK V2M, Unknown motor
Mass
730 kg wet, ~700 kg dry
Launch date (UTC)
2025-01-08 (2 years ago)
Launch vehicle
FALCON 9
Launch site
Air Force Eastern Test Range (AFETR)
Object type
Payload
Rocket body
Debris
Shape & HBR
Box + 2 Pan, 17.7 m
Radar Cross Section
33.884 m², Large (>1 m²)

Expand to show TLE details & history
Last TLE update: 19 hours ago

TLE from 19 hours ago
0 STARLINK-32777
1 62525U 25004Q   26254.38103851  .00013691  00000-0  50586-3 0  9996
2 62525  43.0037 251.5362 0002285 265.1158  94.9433 15.27595402 94856
Epoch: 2026-09-11T09:08Z
TLE epoch observation values (Epoch: 2026-09-11T09:08:41.727Z)
Latitude
Longitude
123.95713°
Altitude
482.914 km
Speed
7.626 km/s
True Right ascension
16h 46m 08s
True Declination
0° 00' 00"
Sunlit
Object was in daylight at epoch
Visualization orbit readout
Latitude
Unknown
Longitude
Unknown
Altitude
Unknown
Speed
Unknown
Apparent Right ascension
Unknown
Apparent Declination
Unknown
Sunlit
N/A
Visualization observer readout
Local Sidereal Time
20:52:26
Azimuth
Unknown
Elevation
Unknown
Doppler factor
Unknown
Orbital elements
Apogee altitude
486.516 km
Perigee altitude
483.379 km
Semi-major axis
6,863.085 km
Eccentricity
0.00023
Inclination
43.0037°
RAAN
251.5362°
Arg. of periapsis
265.1158°
True anomaly
94.96939°
Mean anomaly
94.9433°
Eccentric anomaly
94.95634°
Mean motion
3.81737 °/min
Orbital period
94.31 mins
BSTAR
0.00050586
Loading maneuver chart data...
Computing Atmospheric mass density...
Loading historical data...
Loading historical data...
Loading historical data...
Loading historical data...
Loading historical data...
Loading historical data...
Loading historical data...

Documentation

Showing up to 5 results
|